BAW12J EGKK-KTPA

Flight info

Callsign BAW12J
Flight time N/A
Altitude 34000
Route IMVUR N63 SAM N19 ADKIK DCT MOPAT/N0478F360 DCT DOGAL/M083F380 NATD RIKAL/N0476F380 N572A TOPPS/N0470F400 DCT KAYCC DCT KYLOH DCT NELIE Q75 TEUFL DCT BAAMF DADES2
Aircraft B772/H-SDE1E3FGHIJ3J5J6M1M2P2RWXYZ/LB1D1

Departure

Time 2026-04-14 11:46
Airport London Gatwick Airport (EGKK)

Arrival

Time N/A
Airport Tampa International Airport (KTPA)
Time Latitude Longitude Altitude Speed Heading
2026-04-14 10:58 51.15749 -0.16744 206 ft 0 kts 347°
2026-04-14 11:34 51.15743 -0.16742 206 ft 2 kts 347°
2026-04-14 11:34 51.15729 -0.16736 206 ft 2 kts 347°
2026-04-14 11:34 51.15718 -0.16733 206 ft 0 kts 347°
2026-04-14 11:35 51.15706 -0.16726 206 ft 2 kts 323°
2026-04-14 11:35 51.15696 -0.16708 206 ft 2 kts 293°
2026-04-14 11:35 51.15693 -0.16686 206 ft 2 kts 266°
2026-04-14 11:35 51.15694 -0.16675 206 ft 1 kts 257°
2026-04-14 11:36 51.15694 -0.16672 206 ft 0 kts 257°
2026-04-14 11:40 51.15694 -0.16673 206 ft 0 kts 257°
2026-04-14 11:40 51.15691 -0.16693 206 ft 3 kts 256°
2026-04-14 11:40 51.15684 -0.16742 206 ft 5 kts 258°
2026-04-14 11:41 51.15674 -0.16821 206 ft 8 kts 259°
2026-04-14 11:41 51.15660 -0.16925 206 ft 10 kts 258°
2026-04-14 11:41 51.15642 -0.17054 206 ft 12 kts 257°
2026-04-14 11:41 51.15623 -0.17193 206 ft 13 kts 256°
2026-04-14 11:42 51.15577 -0.17311 206 ft 12 kts 199°
2026-04-14 11:42 51.15492 -0.17294 206 ft 12 kts 168°
2026-04-14 11:42 51.15407 -0.17265 206 ft 12 kts 167°
2026-04-14 11:42 51.15321 -0.17238 206 ft 12 kts 169°
2026-04-14 11:43 51.15241 -0.17184 206 ft 12 kts 149°
2026-04-14 11:43 51.15200 -0.17075 206 ft 12 kts 87°
2026-04-14 11:43 51.15210 -0.16992 206 ft 6 kts 77°
2026-04-14 11:43 51.15213 -0.16969 206 ft 0 kts 77°
2026-04-14 11:44 51.15215 -0.16952 206 ft 2 kts 77°
2026-04-14 11:44 51.15221 -0.16906 206 ft 5 kts 81°
2026-04-14 11:44 51.15211 -0.16827 206 ft 8 kts 126°
2026-04-14 11:44 51.15148 -0.16785 206 ft 10 kts 193°
2026-04-14 11:45 51.15106 -0.16890 206 ft 15 kts 255°
2026-04-14 11:45 51.15071 -0.17160 206 ft 37 kts 258°
2026-04-14 11:45 51.14987 -0.17741 206 ft 75 kts 255°
2026-04-14 11:45 51.14838 -0.18868 206 ft 133 kts 258°
2026-04-14 11:46 51.14593 -0.20579 331 ft 173 kts 253°
2026-04-14 11:46 51.14333 -0.22427 965 ft 175 kts 255°
2026-04-14 11:46 51.14084 -0.24330 1544 ft 180 kts 253°
2026-04-14 11:46 51.13799 -0.26391 1682 ft 203 kts 253°
2026-04-14 11:47 51.13480 -0.28686 1820 ft 224 kts 253°
2026-04-14 11:47 51.13096 -0.31131 2345 ft 226 kts 251°
2026-04-14 11:47 51.12689 -0.33594 2743 ft 237 kts 251°
2026-04-14 11:47 51.12251 -0.36225 3084 ft 251 kts 251°
2026-04-14 11:48 51.11805 -0.38920 3726 ft 252 kts 251°
2026-04-14 11:48 51.11357 -0.41614 4289 ft 256 kts 252°
2026-04-14 11:48 51.10900 -0.44370 4938 ft 256 kts 252°
2026-04-14 11:48 51.10445 -0.47101 5532 ft 258 kts 253°
2026-04-14 11:49 51.09986 -0.49860 6146 ft 259 kts 253°
2026-04-14 11:49 51.09524 -0.52623 6723 ft 261 kts 254°
2026-04-14 11:49 51.09060 -0.55408 7268 ft 263 kts 254°
2026-04-14 11:49 51.08587 -0.58229 7803 ft 266 kts 255°
2026-04-14 11:50 51.08102 -0.61122 8330 ft 269 kts 255°
2026-04-14 11:50 51.07622 -0.63981 8860 ft 272 kts 255°
2026-04-14 11:50 51.07125 -0.66934 9382 ft 275 kts 254°
2026-04-14 11:51 51.06128 -0.72847 10362 ft 282 kts 255°
2026-04-14 11:51 51.05598 -0.75985 10508 ft 299 kts 255°
2026-04-14 11:51 51.05045 -0.79249 10606 ft 317 kts 255°
2026-04-14 11:51 51.04461 -0.82692 10691 ft 334 kts 255°
2026-04-14 11:52 51.03836 -0.86364 10829 ft 350 kts 255°
2026-04-14 11:52 51.03173 -0.90265 10613 ft 375 kts 255°
2026-04-14 11:52 51.02514 -0.94220 11257 ft 373 kts 255°
2026-04-14 11:52 51.01849 -0.98130 12164 ft 365 kts 255°
2026-04-14 11:53 51.01174 -1.02053 12568 ft 371 kts 255°
2026-04-14 11:53 51.00479 -1.06078 13088 ft 374 kts 255°
2026-04-14 11:53 50.99794 -1.10037 13777 ft 371 kts 255°
2026-04-14 11:53 50.99117 -1.13940 14294 ft 373 kts 255°
2026-04-14 11:54 50.98423 -1.17935 14723 ft 378 kts 255°
2026-04-14 11:54 50.97716 -1.21992 15192 ft 381 kts 255°
2026-04-14 11:54 50.97011 -1.26030 15677 ft 383 kts 256°
2026-04-14 11:54 50.96293 -1.30130 16140 ft 386 kts 256°
2026-04-14 11:55 50.95568 -1.34264 16600 ft 388 kts 256°
2026-04-14 11:55 50.94932 -1.38417 17016 ft 391 kts 261°
2026-04-14 11:55 50.94422 -1.42618 17422 ft 394 kts 261°
2026-04-14 11:55 50.93896 -1.46941 17873 ft 397 kts 261°
2026-04-14 11:56 50.93361 -1.51257 18333 ft 398 kts 261°
2026-04-14 11:56 50.92825 -1.55526 18776 ft 400 kts 261°
2026-04-14 11:56 50.92277 -1.59845 19242 ft 401 kts 262°
2026-04-14 11:56 50.91725 -1.64172 19678 ft 403 kts 262°
2026-04-14 11:57 50.91151 -1.68638 20113 ft 405 kts 261°
2026-04-14 11:57 50.90577 -1.73079 20574 ft 406 kts 261°
2026-04-14 11:57 50.90016 -1.77405 21021 ft 406 kts 261°
2026-04-14 11:57 50.89445 -1.81789 21405 ft 408 kts 261°
2026-04-14 11:58 50.88864 -1.86233 21753 ft 411 kts 261°
2026-04-14 11:58 50.88282 -1.90672 22101 ft 413 kts 261°
2026-04-14 11:58 50.87691 -1.95154 22518 ft 414 kts 261°
2026-04-14 11:58 50.87103 -1.99610 22888 ft 415 kts 262°
2026-04-14 11:59 50.86501 -2.04150 23227 ft 418 kts 262°
2026-04-14 11:59 50.85908 -2.08606 23595 ft 419 kts 262°
2026-04-14 11:59 50.85303 -2.13143 23972 ft 420 kts 262°
2026-04-14 11:59 50.84698 -2.17657 24286 ft 422 kts 262°
2026-04-14 12:00 50.84081 -2.22259 24626 ft 423 kts 262°
2026-04-14 12:00 50.83465 -2.26831 24949 ft 425 kts 262°
2026-04-14 12:00 50.82847 -2.31400 25258 ft 427 kts 262°
2026-04-14 12:00 50.82223 -2.36008 25572 ft 428 kts 262°
2026-04-14 12:01 50.81599 -2.40596 25825 ft 431 kts 262°
2026-04-14 12:01 50.80969 -2.45214 26109 ft 432 kts 262°
2026-04-14 12:01 50.80432 -2.49886 26384 ft 431 kts 268°
2026-04-14 12:01 50.80299 -2.54608 26590 ft 430 kts 275°
2026-04-14 12:02 50.80593 -2.59280 26792 ft 430 kts 283°
2026-04-14 12:02 50.81286 -2.63895 27055 ft 429 kts 288°
2026-04-14 12:02 50.82086 -2.68438 27421 ft 428 kts 287°
2026-04-14 12:02 50.82879 -2.72934 27747 ft 428 kts 287°
2026-04-14 12:03 50.83683 -2.77515 27996 ft 430 kts 287°
2026-04-14 12:03 50.84481 -2.82083 28188 ft 432 kts 287°
2026-04-14 12:03 50.85275 -2.86646 28380 ft 434 kts 287°
2026-04-14 12:03 50.86070 -2.91233 28607 ft 435 kts 287°
2026-04-14 12:04 50.86871 -2.95866 28858 ft 436 kts 287°
2026-04-14 12:04 50.87662 -3.00458 29042 ft 438 kts 287°
2026-04-14 12:04 50.88461 -3.05110 29213 ft 440 kts 287°
2026-04-14 12:04 50.89269 -3.09836 29463 ft 440 kts 287°
2026-04-14 12:05 50.90066 -3.14504 29793 ft 438 kts 287°
2026-04-14 12:05 50.90847 -3.19093 30120 ft 436 kts 287°
2026-04-14 12:05 50.91631 -3.23712 30395 ft 435 kts 288°
2026-04-14 12:05 50.92416 -3.28348 30615 ft 436 kts 288°
2026-04-14 12:06 50.93196 -3.32967 30885 ft 434 kts 288°
2026-04-14 12:06 50.93975 -3.37594 31222 ft 431 kts 287°
2026-04-14 12:06 50.94737 -3.42135 31608 ft 427 kts 288°
2026-04-14 12:06 50.95499 -3.46684 31864 ft 426 kts 288°
2026-04-14 12:07 50.96253 -3.51198 32060 ft 425 kts 288°
2026-04-14 12:07 50.97012 -3.55750 32307 ft 424 kts 288°
2026-04-14 12:07 50.97760 -3.60254 32550 ft 423 kts 288°
2026-04-14 12:07 50.98500 -3.64718 32786 ft 421 kts 288°
2026-04-14 12:08 50.99242 -3.69210 33027 ft 420 kts 287°
2026-04-14 12:08 50.99978 -3.73670 33313 ft 418 kts 287°
2026-04-14 12:08 51.00702 -3.78076 33597 ft 415 kts 287°
2026-04-14 12:08 51.01425 -3.82486 33896 ft 412 kts 287°
2026-04-14 12:09 51.02863 -3.91285 33970 ft 413 kts 287°
2026-04-14 12:09 51.04306 -4.00163 33962 ft 413 kts 287°
2026-04-14 12:10 51.05730 -4.08967 33962 ft 414 kts 287°
2026-04-14 12:10 51.07153 -4.17820 33958 ft 412 kts 287°
2026-04-14 12:11 51.08564 -4.26639 33955 ft 414 kts 287°
2026-04-14 12:11 51.09964 -4.35436 33945 ft 412 kts 287°
2026-04-14 12:12 51.11367 -4.44303 33959 ft 414 kts 287°
2026-04-14 12:12 51.12754 -4.53119 33953 ft 413 kts 286°
2026-04-14 12:13 51.14147 -4.62013 33948 ft 413 kts 286°
2026-04-14 12:13 51.15516 -4.70808 33964 ft 414 kts 285°
2026-04-14 12:14 51.16896 -4.79718 33958 ft 414 kts 285°
2026-04-14 12:14 51.18267 -4.88622 33953 ft 415 kts 285°
2026-04-14 12:15 51.19622 -4.97468 33949 ft 413 kts 285°
2026-04-14 12:15 51.20979 -5.06374 33946 ft 414 kts 285°
2026-04-14 12:16 51.22322 -5.15241 33940 ft 413 kts 285°
2026-04-14 12:16 51.23660 -5.24128 33941 ft 413 kts 285°
2026-04-14 12:17 51.24989 -5.32998 33931 ft 413 kts 285°
2026-04-14 12:17 51.26311 -5.41873 33927 ft 412 kts 285°
2026-04-14 12:18 51.27614 -5.50672 33926 ft 414 kts 284°
2026-04-14 12:18 51.28931 -5.59615 33908 ft 413 kts 284°
2026-04-14 12:19 51.30239 -5.68546 33918 ft 413 kts 283°
2026-04-14 12:19 51.31531 -5.77426 33921 ft 413 kts 283°
2026-04-14 12:20 51.32820 -5.86328 33907 ft 412 kts 283°
2026-04-14 12:20 51.34106 -5.95268 33895 ft 412 kts 283°
2026-04-14 12:21 51.35384 -6.04201 33902 ft 413 kts 283°
2026-04-14 12:21 51.36657 -6.13155 33889 ft 412 kts 283°
2026-04-14 12:22 51.37920 -6.22087 33883 ft 412 kts 283°
2026-04-14 12:22 51.39175 -6.31018 33885 ft 413 kts 283°
2026-04-14 12:23 51.39804 -6.35508 34007 ft 411 kts 283°
2026-04-14 12:23 51.40419 -6.39924 34153 ft 409 kts 283°
2026-04-14 12:23 51.41038 -6.44373 34301 ft 408 kts 283°
2026-04-14 12:23 51.41656 -6.48831 34443 ft 407 kts 282°
2026-04-14 12:24 51.42266 -6.53237 34586 ft 405 kts 282°
2026-04-14 12:24 51.42872 -6.57634 34725 ft 404 kts 282°
2026-04-14 12:24 51.43473 -6.62009 34863 ft 402 kts 282°
2026-04-14 12:24 51.44065 -6.66333 35004 ft 401 kts 282°
2026-04-14 12:25 51.44669 -6.70748 35164 ft 399 kts 281°
2026-04-14 12:25 51.45250 -6.75018 35316 ft 397 kts 281°
2026-04-14 12:25 51.45838 -6.79350 35471 ft 395 kts 281°
2026-04-14 12:25 51.46421 -6.83655 35623 ft 393 kts 281°
2026-04-14 12:26 51.46998 -6.87924 35775 ft 390 kts 282°
2026-04-14 12:26 51.47563 -6.92125 35862 ft 389 kts 281°
2026-04-14 12:26 51.48700 -7.00611 35844 ft 392 kts 281°
2026-04-14 12:27 51.49983 -7.09187 35839 ft 395 kts 288°
2026-04-14 12:27 51.52533 -7.17042 35840 ft 401 kts 297°
2026-04-14 12:28 51.55423 -7.24662 35835 ft 402 kts 297°
2026-04-14 12:28 51.58305 -7.32401 35832 ft 404 kts 297°
2026-04-14 12:29 51.61183 -7.40213 35830 ft 406 kts 297°
2026-04-14 12:29 51.64049 -7.48046 35823 ft 408 kts 296°
2026-04-14 12:30 51.66929 -7.55954 35818 ft 410 kts 296°
2026-04-14 12:30 51.69801 -7.63873 35818 ft 411 kts 297°
2026-04-14 12:31 51.72678 -7.71833 35831 ft 408 kts 295°
2026-04-14 12:31 51.75550 -7.79805 35831 ft 410 kts 296°
2026-04-14 12:32 51.78413 -7.87779 35820 ft 410 kts 296°
2026-04-14 12:32 51.81248 -7.95700 35818 ft 411 kts 296°
2026-04-14 12:33 51.84098 -8.03688 35812 ft 409 kts 295°
2026-04-14 12:33 51.86939 -8.11676 35808 ft 411 kts 295°
2026-04-14 12:34 51.89784 -8.19702 35803 ft 411 kts 295°
2026-04-14 12:34 51.92614 -8.27708 35790 ft 409 kts 295°
2026-04-14 12:35 51.95434 -8.35716 35792 ft 410 kts 295°
2026-04-14 12:35 51.98271 -8.43795 35782 ft 411 kts 295°
2026-04-14 12:36 52.01074 -8.51803 35786 ft 410 kts 295°
2026-04-14 12:36 52.03879 -8.59841 35773 ft 410 kts 294°
2026-04-14 12:37 52.06692 -8.67930 35787 ft 411 kts 294°
2026-04-14 12:37 52.09493 -8.76011 35780 ft 410 kts 294°
2026-04-14 12:38 52.13700 -8.88195 35771 ft 409 kts 294°
2026-04-14 12:39 52.16476 -8.96271 35768 ft 411 kts 294°
2026-04-14 12:39 52.19265 -9.04404 35759 ft 411 kts 293°
2026-04-14 12:40 52.22033 -9.12505 35749 ft 410 kts 293°
2026-04-14 12:40 52.24819 -9.20690 35747 ft 412 kts 293°
2026-04-14 12:41 52.27594 -9.28867 35745 ft 412 kts 292°
2026-04-14 12:41 52.30346 -9.37003 35745 ft 412 kts 293°
2026-04-14 12:42 52.33057 -9.45042 35743 ft 412 kts 293°
2026-04-14 12:42 52.35817 -9.53252 35741 ft 412 kts 293°
2026-04-14 12:43 52.38594 -9.61544 35738 ft 412 kts 292°
2026-04-14 12:43 52.41343 -9.69778 35748 ft 413 kts 292°
2026-04-14 12:44 52.44076 -9.77988 35739 ft 412 kts 291°
2026-04-14 12:44 52.46807 -9.86228 35742 ft 412 kts 292°
2026-04-14 12:45 52.50871 -9.98531 35734 ft 413 kts 291°
2026-04-14 12:45 52.53601 -10.06833 35733 ft 414 kts 291°
2026-04-14 12:46 52.56283 -10.15015 35722 ft 415 kts 291°
2026-04-14 12:46 52.59009 -10.23358 35720 ft 414 kts 291°
2026-04-14 12:47 52.61706 -10.31640 35715 ft 414 kts 291°
2026-04-14 12:47 52.64410 -10.39976 35711 ft 414 kts 291°
2026-04-14 12:48 52.67121 -10.48359 35703 ft 415 kts 291°
2026-04-14 12:48 52.69838 -10.56790 35706 ft 416 kts 291°
2026-04-14 12:49 52.72522 -10.65147 35702 ft 416 kts 290°
2026-04-14 12:49 52.75250 -10.73668 35706 ft 416 kts 290°
2026-04-14 12:50 52.79289 -10.86345 35697 ft 417 kts 290°
2026-04-14 12:51 52.81978 -10.94821 35703 ft 419 kts 290°
2026-04-14 12:51 52.84687 -11.03389 35690 ft 419 kts 289°
2026-04-14 12:52 52.87374 -11.11913 35692 ft 418 kts 290°
2026-04-14 12:52 52.90046 -11.20425 35689 ft 418 kts 289°
2026-04-14 12:53 52.92722 -11.28979 35676 ft 418 kts 289°
2026-04-14 12:53 52.95385 -11.37518 35674 ft 418 kts 289°
2026-04-14 12:54 52.98052 -11.46107 35670 ft 419 kts 289°
2026-04-14 12:54 53.00690 -11.54624 35665 ft 416 kts 289°
2026-04-14 12:55 53.03339 -11.63214 35658 ft 419 kts 289°
2026-04-14 12:55 53.05962 -11.71746 35664 ft 416 kts 288°
2026-04-14 12:56 53.08581 -11.80297 35667 ft 416 kts 288°
2026-04-14 12:56 53.11194 -11.88861 35646 ft 415 kts 288°
2026-04-14 12:57 53.13808 -11.97458 35645 ft 417 kts 288°
2026-04-14 12:57 53.16409 -12.06042 35625 ft 417 kts 288°
2026-04-14 12:58 53.19018 -12.14683 35630 ft 417 kts 287°
2026-04-14 12:58 53.21609 -12.23296 35622 ft 418 kts 288°
2026-04-14 12:59 53.24213 -12.31986 35617 ft 419 kts 288°
2026-04-14 12:59 53.26801 -12.40647 35610 ft 419 kts 288°
2026-04-14 13:00 53.29374 -12.49294 35601 ft 419 kts 287°
2026-04-14 13:00 53.31961 -12.58020 35605 ft 420 kts 287°
2026-04-14 13:01 53.34547 -12.66773 35608 ft 419 kts 287°
2026-04-14 13:01 53.37072 -12.75350 35594 ft 419 kts 286°
2026-04-14 13:02 53.39642 -12.84118 35594 ft 422 kts 286°
2026-04-14 13:02 53.42209 -12.92900 35599 ft 419 kts 286°
2026-04-14 13:03 53.44759 -13.01664 35581 ft 420 kts 286°
2026-04-14 13:03 53.47321 -13.10498 35575 ft 420 kts 286°
2026-04-14 13:04 53.49861 -13.19291 35576 ft 421 kts 286°
2026-04-14 13:04 53.52424 -13.28200 35576 ft 424 kts 286°
2026-04-14 13:05 53.54969 -13.37069 35570 ft 422 kts 285°
2026-04-14 13:05 53.57518 -13.45997 35568 ft 425 kts 285°
2026-04-14 13:06 53.60068 -13.54955 35566 ft 423 kts 285°
2026-04-14 13:06 53.62581 -13.63818 35556 ft 424 kts 285°
2026-04-14 13:07 53.65117 -13.72805 35565 ft 427 kts 284°
2026-04-14 13:07 53.67661 -13.81845 35565 ft 425 kts 284°
2026-04-14 13:08 53.70190 -13.90871 35561 ft 426 kts 284°
2026-04-14 13:08 53.72701 -13.99863 35551 ft 425 kts 284°
2026-04-14 13:09 53.75206 -14.08880 35547 ft 428 kts 284°
2026-04-14 13:09 53.77729 -14.17991 35543 ft 430 kts 284°
2026-04-14 13:10 53.80245 -14.27107 35542 ft 430 kts 284°
2026-04-14 13:10 53.82754 -14.36230 35742 ft 426 kts 284°
2026-04-14 13:10 53.83993 -14.40749 35889 ft 424 kts 284°
2026-04-14 13:11 53.85236 -14.45289 36029 ft 421 kts 284°
2026-04-14 13:11 53.86448 -14.49730 36151 ft 418 kts 284°
2026-04-14 13:11 53.87652 -14.54146 36327 ft 414 kts 284°
2026-04-14 13:11 53.88849 -14.58549 36485 ft 411 kts 284°
2026-04-14 13:12 53.90034 -14.62919 36531 ft 410 kts 284°
2026-04-14 13:12 53.92421 -14.71750 36525 ft 411 kts 283°
2026-04-14 13:13 53.94792 -14.80558 36541 ft 414 kts 284°
2026-04-14 13:13 53.97178 -14.89455 36523 ft 419 kts 283°
2026-04-14 13:14 53.99587 -14.98521 36522 ft 423 kts 282°
2026-04-14 13:14 54.01730 -15.07822 36494 ft 426 kts 281°
2026-04-14 13:15 54.03869 -15.17277 36505 ft 432 kts 281°
2026-04-14 13:15 54.06016 -15.26850 36487 ft 437 kts 281°
2026-04-14 13:16 54.08189 -15.36595 36485 ft 443 kts 281°
2026-04-14 13:16 54.10366 -15.46412 36486 ft 446 kts 281°
2026-04-14 13:17 54.12555 -15.56329 36469 ft 447 kts 281°
2026-04-14 13:17 54.14720 -15.66190 36476 ft 450 kts 281°
2026-04-14 13:18 54.16896 -15.76150 36470 ft 449 kts 281°
2026-04-14 13:18 54.19065 -15.86132 36479 ft 451 kts 281°
2026-04-14 13:19 54.21234 -15.96158 36453 ft 451 kts 281°
2026-04-14 13:19 54.23394 -16.06196 36685 ft 452 kts 281°
2026-04-14 13:19 54.24473 -16.11231 36507 ft 455 kts 281°
2026-04-14 13:20 54.25549 -16.16251 36465 ft 449 kts 281°
2026-04-14 13:20 54.27670 -16.26204 36453 ft 449 kts 281°
2026-04-14 13:21 54.29798 -16.36254 36446 ft 454 kts 281°
2026-04-14 13:21 54.31936 -16.46381 36456 ft 454 kts 281°
2026-04-14 13:22 54.34066 -16.56524 36445 ft 453 kts 281°
2026-04-14 13:22 54.36202 -16.66750 36437 ft 455 kts 280°
2026-04-14 13:23 54.38319 -16.76936 36447 ft 456 kts 281°
2026-04-14 13:23 54.40433 -16.87155 36449 ft 456 kts 280°
2026-04-14 13:24 54.42537 -16.97392 36432 ft 458 kts 281°
2026-04-14 13:24 54.45697 -17.12852 36420 ft 459 kts 281°
2026-04-14 13:25 54.47784 -17.23125 36421 ft 460 kts 281°
2026-04-14 13:26 54.52002 -17.44064 36412 ft 464 kts 281°
2026-04-14 13:26 54.54097 -17.54541 36398 ft 462 kts 281°
2026-04-14 13:27 54.56175 -17.65005 36402 ft 467 kts 281°
2026-04-14 13:27 54.58266 -17.75573 36396 ft 465 kts 280°
2026-04-14 13:28 54.60333 -17.86082 36395 ft 466 kts 280°
2026-04-14 13:28 54.62404 -17.96677 36392 ft 468 kts 280°
2026-04-14 13:29 54.64464 -18.07268 36392 ft 469 kts 280°
2026-04-14 13:29 54.66537 -18.17985 36377 ft 470 kts 280°
2026-04-14 13:30 54.68589 -18.28651 36366 ft 471 kts 280°
2026-04-14 13:30 54.70649 -18.39422 36350 ft 474 kts 281°
2026-04-14 13:31 54.72709 -18.50246 36375 ft 471 kts 280°
2026-04-14 13:31 54.74736 -18.60969 36350 ft 474 kts 281°
2026-04-14 13:32 54.76786 -18.71874 36337 ft 475 kts 280°
2026-04-14 13:32 54.78805 -18.82667 36338 ft 473 kts 280°
2026-04-14 13:33 54.80832 -18.93573 36347 ft 476 kts 280°
2026-04-14 13:33 54.82841 -19.04440 36340 ft 476 kts 280°
2026-04-14 13:34 54.85820 -19.20688 36331 ft 478 kts 280°
2026-04-14 13:35 54.87825 -19.31692 36330 ft 479 kts 280°
2026-04-14 13:35 54.89820 -19.42710 36325 ft 478 kts 280°
2026-04-14 13:36 54.91793 -19.53677 36329 ft 481 kts 280°
2026-04-14 13:36 54.93770 -19.64729 36343 ft 481 kts 281°
2026-04-14 13:37 54.95742 -19.75822 36343 ft 483 kts 279°
2026-04-14 13:37 54.97711 -19.86963 36334 ft 482 kts 279°
2026-04-14 13:38 54.99665 -19.98099 36314 ft 479 kts 279°
2026-04-14 13:38 55.01325 -20.09268 36333 ft 480 kts 277°
2026-04-14 13:39 55.02943 -20.20580 36324 ft 482 kts 277°
2026-04-14 13:39 55.04549 -20.31888 36319 ft 481 kts 277°
2026-04-14 13:40 55.06136 -20.43160 36314 ft 481 kts 277°
2026-04-14 13:40 55.07711 -20.54428 36325 ft 483 kts 277°
2026-04-14 13:41 55.09281 -20.65747 36296 ft 484 kts 277°
2026-04-14 13:41 55.10855 -20.77178 36283 ft 481 kts 277°
2026-04-14 13:42 55.12408 -20.88556 36289 ft 484 kts 277°
2026-04-14 13:42 55.13952 -20.99940 36273 ft 484 kts 277°
2026-04-14 13:43 55.15488 -21.11358 36280 ft 484 kts 277°
2026-04-14 13:43 55.17007 -21.22745 36288 ft 485 kts 277°
2026-04-14 13:44 55.18530 -21.34237 36273 ft 485 kts 277°
2026-04-14 13:44 55.20036 -21.45698 36274 ft 485 kts 277°
2026-04-14 13:45 55.21525 -21.57120 36260 ft 486 kts 277°
2026-04-14 13:45 55.23015 -21.68641 36265 ft 485 kts 277°
2026-04-14 13:46 55.24490 -21.80141 36252 ft 486 kts 277°
2026-04-14 13:46 55.25957 -21.91666 36257 ft 485 kts 277°
2026-04-14 13:47 55.27422 -22.03274 36240 ft 487 kts 277°
2026-04-14 13:47 55.28867 -22.14817 36241 ft 487 kts 277°
2026-04-14 13:48 55.30310 -22.26445 36241 ft 487 kts 277°
2026-04-14 13:48 55.31742 -22.38074 36246 ft 490 kts 277°
2026-04-14 13:49 55.33167 -22.49743 36223 ft 489 kts 277°
2026-04-14 13:49 55.34575 -22.61379 36221 ft 488 kts 277°
2026-04-14 13:50 55.35968 -22.72996 36225 ft 490 kts 277°
2026-04-14 13:50 55.37356 -22.84656 36217 ft 490 kts 277°
2026-04-14 13:51 55.38740 -22.96394 36225 ft 490 kts 277°
2026-04-14 13:51 55.40101 -23.08039 36201 ft 490 kts 277°
2026-04-14 13:52 55.41471 -23.19863 36219 ft 490 kts 277°
2026-04-14 13:52 55.42820 -23.31614 36202 ft 491 kts 277°
2026-04-14 13:53 55.44156 -23.43359 36203 ft 493 kts 277°
2026-04-14 13:53 55.45480 -23.55100 36183 ft 492 kts 277°
2026-04-14 13:54 55.46794 -23.66865 36183 ft 492 kts 276°
2026-04-14 13:54 55.48097 -23.78635 36185 ft 492 kts 277°
2026-04-14 13:55 55.49391 -23.90436 36198 ft 493 kts 277°
2026-04-14 13:55 55.50679 -24.02295 36188 ft 494 kts 277°
2026-04-14 13:56 55.51955 -24.14165 36183 ft 493 kts 277°
2026-04-14 13:56 55.53214 -24.25976 36194 ft 494 kts 277°
2026-04-14 13:57 55.54469 -24.37878 36171 ft 495 kts 277°
2026-04-14 13:57 55.55707 -24.49722 36165 ft 494 kts 277°
2026-04-14 13:58 55.56939 -24.61637 36184 ft 495 kts 277°
2026-04-14 13:58 55.58162 -24.73575 36162 ft 493 kts 276°
2026-04-14 13:59 55.59370 -24.85497 36169 ft 494 kts 276°
2026-04-14 13:59 55.60562 -24.97374 36177 ft 494 kts 276°
2026-04-14 14:00 55.61730 -25.09139 36162 ft 495 kts 276°
2026-04-14 14:00 55.62903 -25.21069 36164 ft 495 kts 276°
2026-04-14 14:01 55.64059 -25.32957 36158 ft 494 kts 276°
2026-04-14 14:01 55.65213 -25.44950 36145 ft 495 kts 277°
2026-04-14 14:02 55.66358 -25.56974 36162 ft 495 kts 277°
2026-04-14 14:02 55.67489 -25.68976 36153 ft 495 kts 276°
2026-04-14 14:03 55.68602 -25.80928 36145 ft 496 kts 276°
2026-04-14 14:03 55.69714 -25.93004 36143 ft 496 kts 276°
2026-04-14 14:04 55.70805 -26.04977 36133 ft 495 kts 276°
2026-04-14 14:04 55.71893 -26.17067 36132 ft 496 kts 276°
2026-04-14 14:05 55.72963 -26.29078 36116 ft 496 kts 276°
2026-04-14 14:05 55.74025 -26.41143 36121 ft 495 kts 276°
2026-04-14 14:06 55.75072 -26.53184 36117 ft 496 kts 276°
2026-04-14 14:06 55.76108 -26.65239 36096 ft 496 kts 276°
2026-04-14 14:07 55.77121 -26.77163 36084 ft 495 kts 276°
2026-04-14 14:07 55.78137 -26.89270 36067 ft 495 kts 276°
2026-04-14 14:08 55.79120 -27.01127 36087 ft 496 kts 276°
2026-04-14 14:08 55.80097 -27.13055 36080 ft 495 kts 276°
2026-04-14 14:09 55.81044 -27.24761 36067 ft 496 kts 276°
2026-04-14 14:09 55.82014 -27.36908 36075 ft 497 kts 276°
2026-04-14 14:10 55.82943 -27.48688 36071 ft 497 kts 276°
2026-04-14 14:10 55.83894 -27.60899 36071 ft 498 kts 276°
2026-04-14 14:11 55.84831 -27.73092 36086 ft 497 kts 276°
2026-04-14 14:11 55.85757 -27.85304 36065 ft 498 kts 276°
2026-04-14 14:12 55.86668 -27.97477 36063 ft 498 kts 276°
2026-04-14 14:12 55.87570 -28.09711 36075 ft 499 kts 276°
2026-04-14 14:13 55.88461 -28.21959 36067 ft 498 kts 276°
2026-04-14 14:13 55.89340 -28.34212 36053 ft 498 kts 276°
2026-04-14 14:14 55.90203 -28.46417 36065 ft 498 kts 276°
2026-04-14 14:14 55.91053 -28.58625 36069 ft 498 kts 276°
2026-04-14 14:15 55.91893 -28.70864 36067 ft 497 kts 275°
2026-04-14 14:15 55.92714 -28.83003 36056 ft 498 kts 275°
2026-04-14 14:16 55.93530 -28.95241 36058 ft 497 kts 275°
2026-04-14 14:16 55.94329 -29.07427 36068 ft 497 kts 275°
2026-04-14 14:17 55.95511 -29.25796 36080 ft 498 kts 275°
2026-04-14 14:17 55.96281 -29.38004 36085 ft 498 kts 275°
2026-04-14 14:18 55.97046 -29.50338 36097 ft 498 kts 276°
2026-04-14 14:18 55.97793 -29.62572 36095 ft 497 kts 276°
2026-04-14 14:19 55.98533 -29.74900 36090 ft 499 kts 275°
2026-04-14 14:19 55.99257 -29.87187 36100 ft 499 kts 275°
2026-04-14 14:20 55.99691 -29.99258 36099 ft 497 kts 266°
2026-04-14 14:20 55.99157 -30.11516 36111 ft 497 kts 264°
2026-04-14 14:21 55.98515 -30.23777 36118 ft 497 kts 263°
2026-04-14 14:21 55.97829 -30.35969 36112 ft 495 kts 263°
2026-04-14 14:22 55.97110 -30.48178 36115 ft 497 kts 263°
2026-04-14 14:22 55.96368 -30.60355 36123 ft 495 kts 263°
2026-04-14 14:23 55.95604 -30.72612 36136 ft 495 kts 262°
2026-04-14 14:23 55.94868 -30.84180 36132 ft 495 kts 263°
2026-04-14 14:24 55.94082 -30.96330 36136 ft 495 kts 263°
2026-04-14 14:24 55.93279 -31.08527 36159 ft 494 kts 263°
2026-04-14 14:25 55.92466 -31.20688 36153 ft 495 kts 263°
2026-04-14 14:25 55.91639 -31.32853 36161 ft 493 kts 263°
2026-04-14 14:26 55.90808 -31.44912 36168 ft 495 kts 263°
2026-04-14 14:26 55.89954 -31.57110 36181 ft 494 kts 263°
2026-04-14 14:27 55.89099 -31.69167 36184 ft 494 kts 262°
2026-04-14 14:27 55.88223 -31.81325 36185 ft 494 kts 262°
2026-04-14 14:28 55.87355 -31.93222 36191 ft 494 kts 262°
2026-04-14 14:28 55.86477 -32.05084 36196 ft 494 kts 262°
2026-04-14 14:29 55.85571 -32.17170 36209 ft 493 kts 262°
2026-04-14 14:29 55.84653 -32.29243 36209 ft 494 kts 262°
2026-04-14 14:30 55.83721 -32.41336 36216 ft 494 kts 263°
2026-04-14 14:30 55.82784 -32.53341 36224 ft 493 kts 263°
2026-04-14 14:31 55.81831 -32.65398 36218 ft 492 kts 262°
2026-04-14 14:31 55.80868 -32.77420 36222 ft 493 kts 262°
2026-04-14 14:32 55.79893 -32.89448 36228 ft 492 kts 262°
2026-04-14 14:32 55.78907 -33.01448 36237 ft 492 kts 262°
2026-04-14 14:33 55.77911 -33.13433 36235 ft 491 kts 262°
2026-04-14 14:33 55.76902 -33.25422 36250 ft 491 kts 262°
2026-04-14 14:34 55.75371 -33.43354 36258 ft 491 kts 263°
2026-04-14 14:35 55.74336 -33.55296 36265 ft 490 kts 263°
2026-04-14 14:35 55.73292 -33.67200 36261 ft 489 kts 262°
2026-04-14 14:36 55.72230 -33.79162 36274 ft 489 kts 262°
2026-04-14 14:36 55.71167 -33.91021 36287 ft 489 kts 262°
2026-04-14 14:37 55.70088 -34.02908 36278 ft 489 kts 262°
2026-04-14 14:37 55.68998 -34.14782 36287 ft 489 kts 262°
2026-04-14 14:38 55.67903 -34.26589 36303 ft 489 kts 262°
2026-04-14 14:38 55.66791 -34.38446 36303 ft 487 kts 262°
2026-04-14 14:39 55.65667 -34.50303 36307 ft 488 kts 262°
2026-04-14 14:39 55.64538 -34.62084 36318 ft 489 kts 262°
2026-04-14 14:40 55.63400 -34.73837 36326 ft 488 kts 261°
2026-04-14 14:40 55.62278 -34.85301 36338 ft 488 kts 261°
2026-04-14 14:41 55.61116 -34.97063 36344 ft 488 kts 261°
2026-04-14 14:41 55.59935 -35.08888 36349 ft 487 kts 261°
2026-04-14 14:42 55.58750 -35.20636 36362 ft 487 kts 261°
2026-04-14 14:42 55.57558 -35.32331 36355 ft 487 kts 261°
2026-04-14 14:43 55.56354 -35.44038 36376 ft 486 kts 261°
2026-04-14 14:43 55.55139 -35.55726 36377 ft 486 kts 261°
2026-04-14 14:44 55.53915 -35.67397 36381 ft 485 kts 261°
2026-04-14 14:44 55.52679 -35.79053 36387 ft 485 kts 261°
2026-04-14 14:45 55.51434 -35.90700 36388 ft 484 kts 261°
2026-04-14 14:45 55.50182 -36.02293 36399 ft 484 kts 261°
2026-04-14 14:46 55.48917 -36.13898 36405 ft 483 kts 261°
2026-04-14 14:46 55.47644 -36.25473 36405 ft 483 kts 261°
2026-04-14 14:47 55.46355 -36.37075 36411 ft 482 kts 261°
2026-04-14 14:47 55.45061 -36.48631 36407 ft 482 kts 261°
2026-04-14 14:48 55.43755 -36.60178 36422 ft 481 kts 261°
2026-04-14 14:48 55.42446 -36.71654 36422 ft 481 kts 260°
2026-04-14 14:49 55.41118 -36.83192 36427 ft 480 kts 260°
2026-04-14 14:49 55.39788 -36.94651 36434 ft 480 kts 260°
2026-04-14 14:50 55.38451 -37.06072 36430 ft 480 kts 260°
2026-04-14 14:50 55.37099 -37.17510 36434 ft 479 kts 260°
2026-04-14 14:51 55.35737 -37.28949 36445 ft 479 kts 261°
2026-04-14 14:51 55.34374 -37.40286 36450 ft 478 kts 260°
2026-04-14 14:52 55.32993 -37.51684 36463 ft 477 kts 261°
2026-04-14 14:52 55.31604 -37.63057 36475 ft 477 kts 261°
2026-04-14 14:53 55.30211 -37.74362 36478 ft 477 kts 259°
2026-04-14 14:53 55.28809 -37.85652 36483 ft 476 kts 259°
2026-04-14 14:54 55.27394 -37.96948 36500 ft 475 kts 259°
2026-04-14 14:54 55.25965 -38.08273 36506 ft 475 kts 260°
2026-04-14 14:55 55.24530 -38.19548 36505 ft 474 kts 260°
2026-04-14 14:55 55.23115 -38.30583 36510 ft 473 kts 260°
2026-04-14 14:56 55.20992 -38.46975 36522 ft 473 kts 260°
2026-04-14 14:56 55.19578 -38.57796 36526 ft 473 kts 260°
2026-04-14 14:57 55.18280 -38.67655 36529 ft 472 kts 259°
2026-04-14 14:57 55.16802 -38.78803 36536 ft 472 kts 259°
2026-04-14 14:58 55.15358 -38.89608 36545 ft 471 kts 259°
2026-04-14 14:58 55.13864 -39.00706 36548 ft 471 kts 259°
2026-04-14 14:59 55.12449 -39.11147 36555 ft 470 kts 259°
2026-04-14 14:59 55.10989 -39.21843 36565 ft 470 kts 259°
2026-04-14 15:00 55.09510 -39.32599 36568 ft 469 kts 259°
2026-04-14 15:00 55.07977 -39.43662 36574 ft 468 kts 259°
2026-04-14 15:01 55.06441 -39.54671 36578 ft 468 kts 260°
2026-04-14 15:01 55.04901 -39.65634 36583 ft 467 kts 259°
2026-04-14 15:02 55.03358 -39.76537 36588 ft 467 kts 259°
2026-04-14 15:02 55.01799 -39.87475 36605 ft 466 kts 259°
2026-04-14 15:03 55.00233 -39.98362 36606 ft 465 kts 259°
2026-04-14 15:03 54.98596 -40.09280 36608 ft 465 kts 258°
2026-04-14 15:04 54.96950 -40.20135 36613 ft 465 kts 259°
2026-04-14 15:04 54.95305 -40.30905 36616 ft 464 kts 259°
2026-04-14 15:05 54.93677 -40.41488 36616 ft 463 kts 259°
2026-04-14 15:05 54.92014 -40.52233 36621 ft 461 kts 259°
2026-04-14 15:06 54.90335 -40.63009 36631 ft 462 kts 259°
2026-04-14 15:06 54.88697 -40.73449 36636 ft 461 kts 258°
2026-04-14 15:07 54.87004 -40.84175 36636 ft 460 kts 258°
2026-04-14 15:07 54.85303 -40.94885 36637 ft 461 kts 258°
2026-04-14 15:08 54.83598 -41.05551 36639 ft 459 kts 258°
2026-04-14 15:08 54.81897 -41.16122 36647 ft 457 kts 258°
2026-04-14 15:09 54.80176 -41.26754 36645 ft 459 kts 258°
2026-04-14 15:09 54.78458 -41.37298 36656 ft 456 kts 258°
2026-04-14 15:10 54.76744 -41.47760 36661 ft 457 kts 258°
2026-04-14 15:10 54.75104 -41.57702 36664 ft 455 kts 258°
2026-04-14 15:11 54.73396 -41.68009 36667 ft 456 kts 258°
2026-04-14 15:11 54.71754 -41.77850 36668 ft 455 kts 258°
2026-04-14 15:12 54.69999 -41.88308 36681 ft 453 kts 258°
2026-04-14 15:12 54.68262 -41.98603 36682 ft 453 kts 258°
2026-04-14 15:13 54.66520 -42.08860 36685 ft 452 kts 258°
2026-04-14 15:13 54.64784 -42.19032 36685 ft 451 kts 257°
2026-04-14 15:14 54.62999 -42.29422 36703 ft 451 kts 257°
2026-04-14 15:14 54.61212 -42.39765 36705 ft 451 kts 257°
2026-04-14 15:15 54.59479 -42.49741 36702 ft 451 kts 257°
2026-04-14 15:15 54.57677 -42.60055 36718 ft 450 kts 257°
2026-04-14 15:16 54.55866 -42.70361 36719 ft 451 kts 256°
2026-04-14 15:16 54.54043 -42.80674 36714 ft 450 kts 256°
2026-04-14 15:17 54.52212 -42.90978 36736 ft 451 kts 256°
2026-04-14 15:17 54.50376 -43.01247 36726 ft 449 kts 256°
2026-04-14 15:18 54.48537 -43.11476 36720 ft 450 kts 256°
2026-04-14 15:18 54.46687 -43.21713 36734 ft 450 kts 256°
2026-04-14 15:19 54.44821 -43.31973 36727 ft 449 kts 256°
2026-04-14 15:19 54.42956 -43.42178 36737 ft 450 kts 256°
2026-04-14 15:20 54.41072 -43.52425 36739 ft 450 kts 256°
2026-04-14 15:20 54.39190 -43.62608 36735 ft 449 kts 256°
2026-04-14 15:21 54.37350 -43.72512 36743 ft 450 kts 255°
2026-04-14 15:21 54.35450 -43.82680 36755 ft 450 kts 255°
2026-04-14 15:22 54.33553 -43.92780 36759 ft 450 kts 255°
2026-04-14 15:22 54.31615 -44.03044 36759 ft 451 kts 255°
2026-04-14 15:23 54.29686 -44.13205 36764 ft 450 kts 255°
2026-04-14 15:23 54.27743 -44.23377 36755 ft 448 kts 255°
2026-04-14 15:24 54.25805 -44.33478 36761 ft 450 kts 255°
2026-04-14 15:24 54.23858 -44.43572 36762 ft 448 kts 255°
2026-04-14 15:25 54.21907 -44.53627 36762 ft 448 kts 255°
2026-04-14 15:25 54.19957 -44.63632 36763 ft 447 kts 255°
2026-04-14 15:26 54.17983 -44.73709 36768 ft 448 kts 255°
2026-04-14 15:26 54.16015 -44.83694 36767 ft 446 kts 255°
2026-04-14 15:27 54.14046 -44.93637 36776 ft 447 kts 255°
2026-04-14 15:27 54.12051 -45.03661 36770 ft 445 kts 255°
2026-04-14 15:28 54.10071 -45.13561 36774 ft 444 kts 255°
2026-04-14 15:28 54.08082 -45.23455 36776 ft 444 kts 255°
2026-04-14 15:29 54.06083 -45.33349 36779 ft 442 kts 255°
2026-04-14 15:29 54.05079 -45.38295 36424 ft 442 kts 255°
2026-04-14 15:29 54.04086 -45.43183 36856 ft 443 kts 255°
2026-04-14 15:30 54.03070 -45.48169 36435 ft 443 kts 255°
2026-04-14 15:30 54.02067 -45.53072 36643 ft 439 kts 255°
2026-04-14 15:30 54.01071 -45.57931 36777 ft 440 kts 255°
2026-04-14 15:30 54.00072 -45.62803 36794 ft 444 kts 255°
2026-04-14 15:31 53.98095 -45.72392 36805 ft 443 kts 254°
2026-04-14 15:31 53.96186 -45.81612 36808 ft 442 kts 254°
2026-04-14 15:32 53.94191 -45.91202 36815 ft 440 kts 254°
2026-04-14 15:32 53.92155 -46.00942 36814 ft 441 kts 254°
2026-04-14 15:33 53.90091 -46.10766 36812 ft 440 kts 254°
2026-04-14 15:33 53.88042 -46.20473 36806 ft 439 kts 254°
2026-04-14 15:34 53.85980 -46.30191 36796 ft 437 kts 254°
2026-04-14 15:34 53.83908 -46.39917 36800 ft 439 kts 254°
2026-04-14 15:35 53.81831 -46.49613 36804 ft 437 kts 254°
2026-04-14 15:35 53.79762 -46.59232 36800 ft 437 kts 254°
2026-04-14 15:36 53.77685 -46.68834 36806 ft 436 kts 253°
2026-04-14 15:36 53.75601 -46.78431 36808 ft 436 kts 253°
2026-04-14 15:37 53.73506 -46.88032 36806 ft 435 kts 253°
2026-04-14 15:37 53.71421 -46.97544 36817 ft 435 kts 253°
2026-04-14 15:38 53.69322 -47.07072 36809 ft 433 kts 253°
2026-04-14 15:38 53.67217 -47.16592 36811 ft 434 kts 253°
2026-04-14 15:39 53.65115 -47.26047 36801 ft 432 kts 253°
2026-04-14 15:39 53.63000 -47.35522 36804 ft 432 kts 253°
2026-04-14 15:40 53.60874 -47.45003 36803 ft 433 kts 253°
2026-04-14 15:40 53.58778 -47.54304 36798 ft 430 kts 253°
2026-04-14 15:41 53.56662 -47.63655 36800 ft 430 kts 253°
2026-04-14 15:41 53.54516 -47.73099 36818 ft 431 kts 253°
2026-04-14 15:42 53.52375 -47.82472 36809 ft 430 kts 253°
2026-04-14 15:42 53.50230 -47.91828 36800 ft 428 kts 253°
2026-04-14 15:43 53.48088 -48.01127 36801 ft 427 kts 253°
2026-04-14 15:43 53.45934 -48.10439 36815 ft 428 kts 253°
2026-04-14 15:44 53.43790 -48.19661 36809 ft 427 kts 253°
2026-04-14 15:44 53.41636 -48.28893 36798 ft 426 kts 253°
2026-04-14 15:45 53.39462 -48.38173 36806 ft 428 kts 253°
2026-04-14 15:45 53.37291 -48.47393 36809 ft 428 kts 253°
2026-04-14 15:46 53.35107 -48.56633 36811 ft 426 kts 253°
2026-04-14 15:46 53.32938 -48.65767 36797 ft 424 kts 252°
2026-04-14 15:47 53.30738 -48.74997 36811 ft 427 kts 252°
2026-04-14 15:47 53.28540 -48.84175 36812 ft 426 kts 252°
2026-04-14 15:48 53.26337 -48.93335 36816 ft 426 kts 252°
2026-04-14 15:48 53.24124 -49.02499 36808 ft 425 kts 252°
2026-04-14 15:49 53.21917 -49.11606 36804 ft 424 kts 252°
2026-04-14 15:49 53.19716 -49.20643 36811 ft 425 kts 252°
2026-04-14 15:50 53.17503 -49.29694 36803 ft 424 kts 252°
2026-04-14 15:50 53.15261 -49.38826 36815 ft 424 kts 252°
2026-04-14 15:51 53.13027 -49.47887 36814 ft 423 kts 252°
2026-04-14 15:51 53.10771 -49.57001 36813 ft 424 kts 252°
2026-04-14 15:52 53.08524 -49.66041 36815 ft 424 kts 251°
2026-04-14 15:52 53.06274 -49.75057 36824 ft 423 kts 251°
2026-04-14 15:53 53.04018 -49.84057 36823 ft 422 kts 251°
2026-04-14 15:53 53.01760 -49.93034 36823 ft 424 kts 251°
2026-04-14 15:54 52.98438 -50.06548 36824 ft 421 kts 252°
2026-04-14 15:55 52.96272 -50.15565 36833 ft 423 kts 252°
2026-04-14 15:55 52.94102 -50.24559 36819 ft 420 kts 252°
2026-04-14 15:56 52.91930 -50.33531 36825 ft 421 kts 252°
2026-04-14 15:56 52.89752 -50.42493 36825 ft 421 kts 251°
2026-04-14 15:57 52.87572 -50.51424 36820 ft 420 kts 252°
2026-04-14 15:57 52.85369 -50.60417 36813 ft 421 kts 251°
2026-04-14 15:58 52.83211 -50.69187 36833 ft 421 kts 251°
2026-04-14 15:58 52.81007 -50.78108 36826 ft 421 kts 251°
2026-04-14 15:59 52.78785 -50.87068 36831 ft 421 kts 251°
2026-04-14 15:59 52.76565 -50.95983 36826 ft 421 kts 251°
2026-04-14 16:00 52.74450 -51.04443 36828 ft 420 kts 250°
2026-04-14 16:00 52.72224 -51.13310 36823 ft 422 kts 251°
2026-04-14 16:01 52.69969 -51.22260 36824 ft 420 kts 250°
2026-04-14 16:01 52.67732 -51.31104 36821 ft 422 kts 250°
2026-04-14 16:02 52.65473 -51.39994 36818 ft 420 kts 250°
2026-04-14 16:02 52.63229 -51.48797 36821 ft 420 kts 250°
2026-04-14 16:03 52.60957 -51.57671 36816 ft 420 kts 250°
2026-04-14 16:03 52.58679 -51.66533 36830 ft 421 kts 250°
2026-04-14 16:04 52.56392 -51.75393 36835 ft 421 kts 250°
2026-04-14 16:04 52.54095 -51.84261 36826 ft 420 kts 250°
2026-04-14 16:05 52.51800 -51.93086 36822 ft 421 kts 250°
2026-04-14 16:05 52.49496 -52.01910 36834 ft 420 kts 249°
2026-04-14 16:06 52.47200 -52.10669 36824 ft 421 kts 250°
2026-04-14 16:06 52.44913 -52.19358 36811 ft 420 kts 249°
2026-04-14 16:07 52.42592 -52.28147 36823 ft 420 kts 249°
2026-04-14 16:07 52.40275 -52.36885 36827 ft 420 kts 249°
2026-04-14 16:08 52.37944 -52.45641 36805 ft 420 kts 249°
2026-04-14 16:08 52.35603 -52.54406 36814 ft 421 kts 249°
2026-04-14 16:09 52.33272 -52.63095 36815 ft 419 kts 249°
2026-04-14 16:09 52.30921 -52.71828 36811 ft 420 kts 249°
2026-04-14 16:10 52.28550 -52.80601 36814 ft 419 kts 248°
2026-04-14 16:10 52.26192 -52.89292 36824 ft 420 kts 249°
2026-04-14 16:11 52.23823 -52.97992 36818 ft 419 kts 248°
2026-04-14 16:11 52.21442 -53.06703 36805 ft 419 kts 248°
2026-04-14 16:12 52.19065 -53.15367 36808 ft 420 kts 248°
2026-04-14 16:12 52.16674 -53.24046 36803 ft 419 kts 248°
2026-04-14 16:13 52.14350 -53.32455 36794 ft 420 kts 248°
2026-04-14 16:13 52.12024 -53.40841 36793 ft 420 kts 248°
2026-04-14 16:14 52.09654 -53.49355 36788 ft 419 kts 248°
2026-04-14 16:14 52.07320 -53.57705 36788 ft 420 kts 248°
2026-04-14 16:15 52.04904 -53.66322 36785 ft 420 kts 248°
2026-04-14 16:15 52.02485 -53.74915 36789 ft 421 kts 248°
2026-04-14 16:16 52.00059 -53.83503 36775 ft 420 kts 248°
2026-04-14 16:16 51.97609 -53.92142 36792 ft 420 kts 248°
2026-04-14 16:17 51.95174 -54.00700 36779 ft 419 kts 248°
2026-04-14 16:17 51.92720 -54.09290 36775 ft 420 kts 248°
2026-04-14 16:18 51.90260 -54.17873 36772 ft 421 kts 248°
2026-04-14 16:18 51.87785 -54.26477 36759 ft 421 kts 248°
2026-04-14 16:19 51.85319 -54.35016 36771 ft 421 kts 248°
2026-04-14 16:19 51.82837 -54.43580 36762 ft 421 kts 248°
2026-04-14 16:20 51.80325 -54.52160 36755 ft 423 kts 245°
2026-04-14 16:20 51.77343 -54.60317 36767 ft 425 kts 242°
2026-04-14 16:21 51.74279 -54.68435 36753 ft 423 kts 241°
2026-04-14 16:21 51.71209 -54.76530 36764 ft 426 kts 241°
2026-04-14 16:22 51.68144 -54.84580 36977 ft 420 kts 241°
2026-04-14 16:22 51.66627 -54.88551 37129 ft 419 kts 241°
2026-04-14 16:22 51.65093 -54.92562 37273 ft 419 kts 242°
2026-04-14 16:22 51.63612 -54.96429 37429 ft 419 kts 241°
2026-04-14 16:23 51.62086 -55.00407 37582 ft 419 kts 241°
2026-04-14 16:23 51.60558 -55.04384 37724 ft 419 kts 242°
2026-04-14 16:23 51.59009 -55.08408 37742 ft 421 kts 241°
2026-04-14 16:24 51.55938 -55.16369 37750 ft 422 kts 242°
2026-04-14 16:24 51.52830 -55.24397 37739 ft 421 kts 241°
2026-04-14 16:25 51.49739 -55.32358 37732 ft 421 kts 242°
2026-04-14 16:25 51.46654 -55.40279 37723 ft 422 kts 242°
2026-04-14 16:26 51.43536 -55.48260 37734 ft 420 kts 242°
2026-04-14 16:26 51.40412 -55.56231 37715 ft 421 kts 242°
2026-04-14 16:27 51.37300 -55.64147 37720 ft 421 kts 242°
2026-04-14 16:27 51.34183 -55.72054 37735 ft 422 kts 241°
2026-04-14 16:28 51.31076 -55.79909 37733 ft 420 kts 241°
2026-04-14 16:28 51.27928 -55.87844 37726 ft 421 kts 241°
2026-04-14 16:29 51.24801 -55.95701 37727 ft 421 kts 241°
2026-04-14 16:29 51.21657 -56.03578 37730 ft 420 kts 241°
2026-04-14 16:30 51.18519 -56.11416 37706 ft 422 kts 241°
2026-04-14 16:30 51.15345 -56.19321 37698 ft 423 kts 241°
2026-04-14 16:31 51.12149 -56.27253 37695 ft 423 kts 241°
2026-04-14 16:31 51.08979 -56.35099 37685 ft 423 kts 241°
2026-04-14 16:32 51.05791 -56.42966 37678 ft 424 kts 241°
2026-04-14 16:32 51.02611 -56.50789 37667 ft 423 kts 241°
2026-04-14 16:33 50.99394 -56.58678 37656 ft 425 kts 241°
2026-04-14 16:33 50.96188 -56.66517 37658 ft 424 kts 240°
2026-04-14 16:34 50.92987 -56.74320 37650 ft 424 kts 240°
2026-04-14 16:34 50.91399 -56.78183 37808 ft 425 kts 240°
2026-04-14 16:34 50.89790 -56.82091 37689 ft 425 kts 240°
2026-04-14 16:35 50.86583 -56.89859 37646 ft 422 kts 240°
2026-04-14 16:35 50.83354 -56.97663 37651 ft 422 kts 240°
2026-04-14 16:36 50.80130 -57.05430 37647 ft 424 kts 240°
2026-04-14 16:36 50.76902 -57.13181 37649 ft 422 kts 240°
2026-04-14 16:37 50.73656 -57.20953 37669 ft 424 kts 240°
2026-04-14 16:37 50.70418 -57.28684 37682 ft 424 kts 240°
2026-04-14 16:38 50.67165 -57.36429 37688 ft 425 kts 240°
2026-04-14 16:38 50.63896 -57.44186 37689 ft 426 kts 240°
2026-04-14 16:39 50.60610 -57.51960 37678 ft 424 kts 240°
2026-04-14 16:39 50.57350 -57.59653 37677 ft 427 kts 240°
2026-04-14 16:40 50.54048 -57.67421 37707 ft 426 kts 239°
2026-04-14 16:40 50.50762 -57.75128 37703 ft 427 kts 239°
2026-04-14 16:41 50.47454 -57.82864 37715 ft 427 kts 239°
2026-04-14 16:41 50.44149 -57.90570 37703 ft 428 kts 239°
2026-04-14 16:42 50.40833 -57.98277 37705 ft 428 kts 239°
2026-04-14 16:42 50.37504 -58.05994 37704 ft 428 kts 239°
2026-04-14 16:43 50.34159 -58.13726 37712 ft 429 kts 239°
2026-04-14 16:43 50.30827 -58.21404 37697 ft 426 kts 239°
2026-04-14 16:44 50.27462 -58.29136 37715 ft 429 kts 239°
2026-04-14 16:44 50.24121 -58.36789 37702 ft 429 kts 239°
2026-04-14 16:45 50.19085 -58.48286 37710 ft 429 kts 239°
2026-04-14 16:45 50.15705 -58.55973 37686 ft 431 kts 239°
2026-04-14 16:46 50.12309 -58.63672 37711 ft 429 kts 239°
2026-04-14 16:46 50.08924 -58.71327 37706 ft 431 kts 239°
2026-04-14 16:47 50.05515 -58.79014 37706 ft 432 kts 239°
2026-04-14 16:47 50.02099 -58.86692 37702 ft 432 kts 239°
2026-04-14 16:48 49.98675 -58.94368 37705 ft 433 kts 239°
2026-04-14 16:48 49.95295 -59.01922 37702 ft 433 kts 239°
2026-04-14 16:49 49.91899 -59.09490 37704 ft 433 kts 239°
2026-04-14 16:49 49.88482 -59.17084 37704 ft 433 kts 239°
2026-04-14 16:50 49.85024 -59.24746 37711 ft 434 kts 239°
2026-04-14 16:50 49.81558 -59.32405 37706 ft 432 kts 239°
2026-04-14 16:51 49.78099 -59.40024 37706 ft 433 kts 240°
2026-04-14 16:51 49.74649 -59.47605 37706 ft 434 kts 240°
2026-04-14 16:52 49.71184 -59.55193 37712 ft 432 kts 240°
2026-04-14 16:52 49.67691 -59.62825 37711 ft 433 kts 240°
2026-04-14 16:53 49.64215 -59.70396 37719 ft 434 kts 239°
2026-04-14 16:53 49.60733 -59.77959 37718 ft 433 kts 239°
2026-04-14 16:54 49.57223 -59.85560 37720 ft 434 kts 239°
2026-04-14 16:54 49.53722 -59.93119 37722 ft 434 kts 239°
2026-04-14 16:55 49.50225 -60.00651 37724 ft 435 kts 239°
2026-04-14 16:55 49.46706 -60.08207 37727 ft 434 kts 239°
2026-04-14 16:56 49.43184 -60.15749 37730 ft 434 kts 239°
2026-04-14 16:56 49.39666 -60.23260 37735 ft 433 kts 239°
2026-04-14 16:57 49.36151 -60.30744 37727 ft 433 kts 239°
2026-04-14 16:57 49.32635 -60.38211 37739 ft 433 kts 240°
2026-04-14 16:58 49.29107 -60.45682 37745 ft 434 kts 239°
2026-04-14 16:58 49.25565 -60.53158 37745 ft 432 kts 240°
2026-04-14 16:59 49.22039 -60.60584 37742 ft 432 kts 240°
2026-04-14 16:59 49.18494 -60.68027 37757 ft 434 kts 239°
2026-04-14 17:00 49.14939 -60.75471 37763 ft 434 kts 239°
2026-04-14 17:00 49.11412 -60.82834 37757 ft 433 kts 239°
2026-04-14 17:01 49.07867 -60.90219 37767 ft 433 kts 239°
2026-04-14 17:01 49.04315 -60.97594 37776 ft 433 kts 239°
2026-04-14 17:02 49.00751 -61.04976 37774 ft 434 kts 239°